Content
SEND FEEDBACK

Daily
Averages
Monthly
Summary
Mexico

PUEBLA - JARDINES DE SAN MANUEL, PUEBLA


Home > North America > Mexico > Puebla
Elevation: 6962 feet     Latitude: 19 00N     Longitude: 098 11W

WEATHER
 
SELECT A DAY
Number of Records: 121,150;   Date Range: 1/1/95 - 9/15/14
 
SHARE

PRINT THIS DATA

[ ← Previous Day ]
WEATHER ALMANAC - JANUARY 21, 2013
[ Next Day → ]
[ °C ]   °F
Weather ElementAverageHighLow
Temperature54.6 °F63 °F (2:40 pm)44.6 °F (6:00 am)
Dewpoint37.7 °F45 °F (11:45 pm)32 °F (2:41 pm)
Humidity52.3 %76 % (6:00 am)27 % (2:40 pm)
Barometer30.25 in30.41 in (10:41 am)29.91 in (5:40 pm)
Wind Speed3.9 mph8.1 mph (11:40 am)
Weather ElementAverage
Visibility6.3 mi
Wind DirectionSSE (160.5 °)

Weather ElementTotal
Precipitation---
Heating Degree Days11.2 (Base 65)
Growing Degree Days3.8 (Base 50)
Averaged from 24 records on January 21, 2013
WEATHER CONDITIONS BREAKOUT
WIND DIRECTION BREAKOUT
WEATHER BY HOUR - JANUARY 21, 2013
[ °C ]   °F
Local TimeTemperatureDewpointHumidityBarometerVisibilityWind DirectionWind SpeedGust SpeedPrecipitationEventsConditions
5:58 AM47.0 °F40.0 °F68 %29.98 in3.0 miCalm
6:00 AM44.6 °F37.4 °F76 %30.31 in7.0 miNNW (330°)4.6 mphMostly Cloudy
6:42 AM44.6 °F37.4 °F76 %30.32 in7.0 miNNW (330°)4.6 mphOvercast
7:41 AM46.4 °F37.4 °F71 %30.33 in7.0 miNW (320°)3.5 mphOvercast
8:41 AM50.0 °F37.4 °F62 %30.38 in7.0 miNW (320°)3.5 mphOvercast
9:40 AM50.0 °F37.4 °F62 %30.40 in7.0 miENE (60°)4.6 mphOvercast
10:41 AM55.4 °F37.4 °F51 %30.41 in7.0 miENE (60°)5.8 mphOvercast
11:40 AM60.8 °F35.6 °F39 %30.39 in7.0 miNW (320°)8.1 mphOvercast
11:50 AM57.0 °F40.0 °F41 %30.11 in3.0 miSSE (150°)2.2 mphHaze
12:40 PM60.8 °F33.8 °F36 %30.36 in7.0 miNW (320°)8.1 mphOvercast
1:40 PM62.6 °F33.8 °F34 %30.31 in8.0 miNNE (20°)3.5 mphOvercast
2:40 PM63.0 °F38.0 °F27 %29.96 in3.0 miEast (90°)2.2 mphHaze
2:41 PM60.8 °F32.0 °F34 %30.30 in8.0 miSE (130°)5.8 mphOvercast
3:41 PM60.8 °F35.6 °F39 %30.29 in8.0 miSW (220°)6.9 mphOvercast
4:42 PM59.0 °F37.4 °F45 %30.29 in8.0 miSE (130°)8.1 mphOvercast
5:40 PM58.0 °F39.0 °F38 %29.91 in3.0 miNorth2.2 mphHaze
5:42 PM57.2 °F37.4 °F48 %30.30 in8.0 miESE (120°)8.1 mphOvercast
6:44 PM55.4 °F37.4 °F51 %30.31 in8.0 miEast (100°)3.5 mphOvercast
7:41 PM55.4 °F37.4 °F51 %30.32 in7.0 miCalmOvercast
8:40 PM53.6 °F39.2 °F58 %30.35 in7.0 miCalmOvercast
8:45 PM56.0 °F40.0 °F44 %29.91 in3.0 miEast (90°)2.2 mphOvercast
9:47 PM50.0 °F41.0 °F71 %30.37 in7.0 miEast (100°)2.3 mphOvercast
10:41 PM50.0 °F37.4 °F62 %30.36 in7.0 miNW (320°)3.5 mphOvercast
11:45 PM52.0 °F45.0 °F71 %29.95 in3.0 miCalmOvercast
Hourly data recorded from MMPB, located miles away from Puebla - Jardines de San Manuel, Puebla







STORIES FROM OUR PARTNERS